Regional Weather Roundup
Issued by NWS Burlington, VT

Home | Current Version | Previous Version | Text Only | Print | Product List | Glossary On
Versions: 1 2 3 4 5 6 7 8 9 10 11 12 13 14 15 16 17 18 19 20 21 22 23 24 25 26 27 28 29 30 31 32 33 34 35 36 37 38 39 40 41 42 43 44 45 46 47 48 49 50
000
ASUS41 KBTV 250030
RWRBTV
VERMONT REGIONAL WEATHER ROUNDUP
NATIONAL WEATHER SERVICE BURLINGTON VT
800 PM EDT WED MAY 24 2017

NOTE: "FAIR" INDICATES FEW OR NO CLOUDS BELOW 12,000 FEET WITH NO
SIGNIFICANT WEATHER AND/OR OBSTRUCTIONS TO VISIBILITY.

* THESE REPORTS ARE NOT UNDER NWS QUALITY CONTROL AND/OR DO NOT
  REPORT WEATHER SUCH AS PRECIPITATION AND FOG.

VTZ001>019-250100-
_____VERMONT_____


CITY           SKY/WX    TMP DP  RH WIND       PRES   REMARKS
BURLINGTON     CLOUDY    72  53  51 E5        29.76R
6HR MIN TEMP:  72; 6HR MAX TEMP:  79;

MONTPELIER     CLOUDY    65  55  70 S5        29.84R
6HR MIN TEMP:  64; 6HR MAX TEMP:  72;

MORRISVILLE    CLOUDY    61  57  87 CALM      29.81R
6HR MIN TEMP:  61; 6HR MAX TEMP:  67;

ST. JOHNSBURY*   N/A     69  51  52 MISG      29.78R
6HR MIN TEMP:  69; 6HR MAX TEMP:  74;

LYNDONVILLE*   CLOUDY    64  52  65 N3        29.84R
6HR MIN TEMP:  64; 6HR MAX TEMP:  72;

MIDDLEBURY*    FAIR      67  51  56 SE3       29.77R
6HR MIN TEMP:  69; 6HR MAX TEMP:  74;

RUTLAND*       CLEAR     68  49  50 SE6       29.78R
6HR MIN TEMP:  68; 6HR MAX TEMP:  74;

SPRINGFIELD    CLEAR     67  50  54 CALM      29.79R
6HR MIN TEMP:  67; 6HR MAX TEMP:  75;

HIGHGATE*      FAIR      67  54  62 CALM      29.78R
6HR MIN TEMP:  68; 6HR MAX TEMP:  75;

NEWPORT*       CLOUDY    60  54  80 CALM      29.83R
6HR MIN TEMP:  60; 6HR MAX TEMP:  71;

BENNINGTON     CLEAR     68  47  46 SE9       29.78R
6HR MIN TEMP:  67; 6HR MAX TEMP:  74;

SUTTON*          N/A     61 N/A N/A MISG        N/A
ISLAND POND*     N/A     61 N/A N/A CALM        N/A
GALLUP MILLS*    N/A     59 N/A N/A MISG        N/A
UNION VILLAGE*   N/A     61 N/A N/A MISG        N/A

_____LAKE CHAMPLAIN_____


CITY           SKY/WX    TMP DP  RH WIND       PRES   REMARKS
BURTON ISLAND*   N/A     68  50  52 E2          N/A
COLCHESTER RF*   N/A     66  50  55 NW6         N/A
DIAMOND ISL*     N/A     68  48  49 N5          N/A

$$

NYZ007-026>031-035-052-083-087-250100-
_____NORTHERN NEW YORK_____


CITY           SKY/WX    TMP DP  RH WIND       PRES   REMARKS
PLATTSBURGH    CLOUDY    66  52  60 CALM      29.76R
6HR MIN TEMP:  65; 6HR MAX TEMP:  75;

SARANAC LAKE   CLEAR     64  50  60 NE6       29.77R
6HR MIN TEMP:  64; 6HR MAX TEMP:  72;

MASSENA        MOCLDY    68  54  60 NE6       29.76R
6HR MIN TEMP:  68; 6HR MAX TEMP:  75;

OGDENSBURG*    FAIR      68  53  58 NE3       29.73S
6HR MIN TEMP:  68; 6HR MAX TEMP:  77;

POTSDAM*       MOCLDY    70  57  64 E7        29.74S
STARK FALLS*     N/A     66 N/A N/A E1          N/A
WATERTOWN      MOCLDY    70  53  54 NE7       29.70S
6HR MIN TEMP:  70; 6HR MAX TEMP:  78;

FT DRUM        MOCLDY    71  51  48 NE12      29.71S
6HR MIN TEMP:  71; 6HR MAX TEMP:  78;

ALBANY         PTCLDY    71  46  40 SE6       29.76R
6HR MIN TEMP:  71; 6HR MAX TEMP:  77;


$$
NHZ002-005-011-250100-
_____NEW HAMPSHIRE_____


CITY           SKY/WX    TMP DP  RH WIND       PRES   REMARKS
LEBANON        CLEAR     69  52  54 CALM      29.79R
6HR MIN TEMP:  69; 6HR MAX TEMP:  75;

KEENE          CLEAR     67  50  54 CALM      29.81R
6HR MIN TEMP:  67; 6HR MAX TEMP:  73;

MT WASHINGTON  PTCLDY    43  41  93 E7          N/A
6HR MIN TEMP:  41; 6HR MAX TEMP:  45;

WHITEFIELD     MOCLDY    64  52  64 CALM      29.81R
6HR MIN TEMP:  64; 6HR MAX TEMP:  72;


$$

_____REGIONAL QUEBEC LOCATIONS_____


CITY           SKY/WX    TMP DP  RH WIND       PRES   REMARKS
MONTREAL       MOCLDY    72  50  46 E8        29.76R
QUEBEC CITY    MOCLDY    59  48  67 E12G18    29.84R
SHERBROOKE     CLOUDY    63  54  72 SE6       29.80R

_____REGIONAL ONTARIO LOCATIONS_____


CITY           SKY/WX    TMP DP  RH WIND       PRES   REMARKS
OTTAWA         MOCLDY    70  52  52 E8        29.75R

______KEY______
VSB  - VISIBILITY IN MILES
WCI  - WIND CHILL INDEX
HX   - HEAT INDEX
$$
NNNN



USA.gov is the U.S. government's official web portal to all federal, state and local government web resources and services.